Hourly Weather Roundup
Issued by NWS Central Illinois

Home | Current Version | Previous Version | Text Only | Print | Product List | Glossary On
Versions: 1 2 3 4 5 6 7 8 9 10 11 12 13 14 15 16 17 18 19 20 21 22 23 24 25 26 27 28 29 30 31 32 33 34 35 36 37 38 39 40 41 42 43 44 45 46 47 48 49 50
000
NZUS43 KILX 260310
HWRILX

Area Weather Roundup
National Weather Service Lincoln IL
1000 PM CDT TUE JUL 25 2017

NOTE:  "FAIR" indicates few or no clouds below 12,000 feet, with
       no sigificant weather and/or obstructions to visibility.


CITY           SKY/WX    TMP DP  RH WIND       PRES   REMARKS
Bloomington    CLEAR     68  63  84 E6        30.15R
Champaign      CLEAR     67  63  87 E6        30.15R
Danville       CLEAR     66  61  83 E3        30.13R
Decatur        CLEAR     70  67  90 E6        30.13R
Effingham      CLEAR     73  70  93 CALM      30.14R
Flora          CLEAR     78  70  76 NE3       30.11R HX  80
Galesburg      CLOUDY    72  67  85 CALM      30.12S
Jacksonville   CLEAR     73  68  87 E5        30.10S
Lacon          CLEAR     71  64  79 E8        30.12R
Lawrenceville  CLEAR     73  69  87 SE6       30.12R
Litchfield     CLEAR     74  70  85 E6        30.11R
$$


CITY           SKY/WX    TMP DP  RH WIND       PRES   REMARKS
Lincoln        CLEAR     72  69  91 CALM      30.13R
Macomb         CLOUDY    71  69  92 SE3       30.11F
Mattoon        CLEAR     70  68  93 SE3       30.13R
Mt Carmel AP   MOCLDY    73  68  84 E6        30.12R
Olney-Noble AP CLEAR     73  71  92 CALM      30.12R
Paris AP       CLEAR     67  63  88 E5        30.15R
Peoria         CLEAR     75  68  78 E5        30.12R
Pontiac        CLEAR     68  66  93 SE7       30.15F
Rantoul        CLEAR     71  65  81 CALM      30.15R
Robinson       CLEAR     69  67  93 CALM      30.14R
Springfield    CLEAR     76  70  82 E5        30.12R
Taylorville    CLEAR     74  68  83 E6        30.12R
$$

...REGIONAL REPORTS...


CITY           SKY/WX    TMP DP  RH WIND       PRES   REMARKS
Chicago O`Hare PTCLDY    71  58  63 S8        30.15R
Kankakee       CLEAR     66  63  88 E3        30.16F
Moline         CLOUDY    73  67  81 SE6       30.09S
Mount Sterling PTCLDY    74  69  83 SE6       30.09S
Mount Vernon   CLEAR     76  70  82 NE5       30.11R
Pittsfield     CLEAR     75  71  87 CALM      30.10S
Quincy         PTCLDY    77  70  79 SE7       30.08R
Rockford       CLOUDY    71  62  73 S12G20    30.14R
$$


CITY           SKY/WX    TMP DP  RH WIND       PRES   REMARKS
Burlington     PTCLDY    77  70  79 SE8       30.08S
Cedar Rapids   NOT AVBL
Des Moines     CLOUDY    84  72  67 SE8       30.01R HX  89
Kirksville     CLOUDY    76  68  76 SE8       30.07S
Ottumwa        MOCLDY    81  66  60 SE8       30.05S HX  83
St Louis       PTCLDY    84  72  67 E9        30.08R HX  89
$$


CITY           SKY/WX    TMP DP  RH WIND       PRES   REMARKS
Terre Haute    CLEAR     70  62  76 E3        30.14R
Evansville     PTCLDY    77  70  79 E5        30.11R
Indianapolis   PTCLDY    72  60  66 E8        30.15S
Lafayette      CLEAR     67  60  78 E6        30.15R
Madison        MOCLDY    72  63  73 S10       30.09F
Milwaukee      MOCLDY    71  59  65 S9        30.12F
$$






USA.gov is the U.S. government's official web portal to all federal, state and local government web resources and services.